This is the latest recevied weather packets stored in our database for station/object EA4GEL-16. If no packets are shown the sender has not sent any weather packets the latest 10 day(s).
| Time | Temp. | Humidity | Pressure | Rain* | Wind** | Luminosity | Snow |
|---|---|---|---|---|---|---|---|
| 1787478885 | 25.56° C | 33% | 944.9 hPa | - | - | - | - |
| 1787477985 | 25.56° C | 33% | 945 hPa | - | - | - | - |
| 1787477085 | 25.56° C | 34% | 944.9 hPa | - | - | - | - |
| 1787476185 | 25° C | 34% | 944.9 hPa | - | - | - | - |
| 1787475285 | 25° C | 34% | 944.9 hPa | - | - | - | - |
| 1787474385 | 25° C | 35% | 945 hPa | - | - | - | - |
| 1787473484 | 25° C | 35% | 945 hPa | - | - | - | - |
| 1787472584 | 24.44° C | 36% | 945 hPa | - | - | - | - |
| 1787471684 | 24.44° C | 38% | 945 hPa | - | - | - | - |
| 1787470784 | 23.89° C | 38% | 945 hPa | - | - | - | - |
| 1787469884 | 23.89° C | 36% | 945 hPa | - | - | - | - |
| 1787468984 | 23.33° C | 39% | 945.1 hPa | - | - | - | - |
| 1787468083 | 23.33° C | 36% | 945 hPa | - | - | - | - |
| 1787467746 | 22.78° C | 36% | 945 hPa | - | - | - | - |
| 1787466846 | 22.22° C | 37% | 944.9 hPa | - | - | - | - |
| 1787465946 | 22.22° C | 35% | 944.8 hPa | - | - | - | - |
| 1787465045 | 22.78° C | 33% | 944.6 hPa | - | - | - | - |
| 1787464145 | 21.67° C | 34% | 944.5 hPa | - | - | - | - |
| 1787463245 | 21.67° C | 34% | 944.3 hPa | - | - | - | - |
| 1787462345 | 21.67° C | 34% | 944.2 hPa | - | - | - | - |
| 1787461445 | 21.67° C | 34% | 944.1 hPa | - | - | - | - |
| 1787460545 | 21.11° C | 33% | 944.1 hPa | - | - | - | - |
| 1787459645 | 21.67° C | 34% | 944 hPa | - | - | - | - |
| 1787458745 | 21.11° C | 36% | 943.9 hPa | - | - | - | - |
| 1787457844 | 21.67° C | 34% | 943.8 hPa | - | - | - | - |
* Rain since midnight (hover to see other rain measurements)
** Current wind speed in m/s (hover to see current wind gust speed)